sat.trackr.live / text

‹ back to catalog

TIANYAN 23

NORAD 63209 · 2025-051B

PAYLOAD ACTIVE UNKNOWN

§ Identity

Operator
Country
PRC
Launch date
2025-03-15
Launch site
JSC
Launch vehicle
Mass (kg)
RCS (m²)

External: N2YO · Heavens-Above · Gunter

§ Orbital elements

Epoch: 2026-09-22T22:35:43.268928Z

Period
92.60 min
Inclination
97.4492°
Eccentricity
0.0005202
Mean motion
15.55028059 rev/d
Perigee alt
398.5 km
Apogee alt
405.6 km
Semi-major
6,780.2 km
B*
5.0530e-4
RAAN
356.7018°
Arg perigee
99.5703°
Mean anomaly
260.6139°
Rev number
8,552

§ Raw data

TIANYAN 231 63209U 25051B   26265.94147302  .00033919  00000+0  50530-3 0  99942 63209  97.4492 356.7018 0005202  99.5703 260.6139 15.55028059 85526

JSON: /api/v1/satellites/63209 · /tle

For live sub-satellite position, see the globe view (requires WebGL).

§ Visibility from observer

Set your observer location to see the next 7 days of passes ≥ 10°. The values pass through the URL so the page stays shareable.

No JS? Fill the form by hand. The geolocation button needs JavaScript.

§ Radio — SatNOGS DB

ModeDescriptionDownlinkUplink
FM Telemetry 401.155 MHz

1 transmitter · refreshed weekly from db.satnogs.org